Погода в Рудницком

Россия / Брянская область     52°56′44″N   32°12′15″E
темп.,
°C
ветер,
м/с
пор.,
м/с
влажн.,
%
обл.,
%
осадки,
мм/ч
давл.,
гПа
погр.,
м
14 мая, пт
пт1400:00+9юв4118510 0.0 1012263
03:00+10юв51283100 0.1 1012304
06:00+10юв5128298 0.0 1012346
09:00+11вюв498291 0.1 1011270
12:00+18юв7106812 0.3 10101115
15:00+20ююв68615 1.5 10081622
18:00+18ююв3580100 2.1 1006324
21:00+14ю338978 5.1 100728
15 мая, сб
сб1500:00+12ю349381 0.1 100759
03:00+11ю349488 0.1 100758
06:00+11ююв47965 0.3 1007149
09:00+15ю578145 0.9 1007590
12:00+16ююз797767 0.2 10081044
15:00+17юз7977100 1.9 10081130
18:00+17юз68805 0.9 1008999
21:00+13ююз479383 1.5 1010132
16 мая, вс
вс1600:00+11ююз49955 0.2 1010176
03:00+10ююз489817 0.2 1011160
06:00+10ююз489822 0.0 1012214
09:00+15юз578317 0.0 1013517
12:00+19юз556376 0.1 10131473
15:00+21юз365411 0.1 10131809
18:00+18ю3573100 0.1 101298
21:00+15ююв3381100 0.1 101231
17 мая, пн
пн1700:00+14юв2384100 0.0 101223
03:00+13вюв3787100 0.0 101296
06:00+13вюв4989100 0.0 1011169
09:00+17вюв51075100 0.0 1011364
12:00+21в5770100 0.0 1009747
15:00+24в5763100 0.2 10061545
18:00+22юв51074100 1.3 1005411
21:00+17ююв4888100 3.3 1004141
18 мая, вт
вт1800:00+14зсз3599100 1.1 1005147
03:00+14зюз4699100 2.1 1005280
06:00+13з239782 1.0 1004165
09:00+15з4689100 1.1 1005564
12:00+18зюз567549 0.4 10061000
15:00+18юз477629 1.3 1006899
18:00+18зюз5774100 0.9 1006868
21:00+15юз2385100 1.2 100842